Other Public Products
Issued by NWS Grand Forks, ND

Home | Current Version | Previous Version | Text Only | Print | Product List | Glossary Off
Versions: 1 2 3 4 5 6 7 8 9 10 11 12 13 14 15 16 17 18 19 20 21 22 23 24 25 26 27 28 29 30 31 32 33 34 35 36 37 38 39 40 41 42 43 44 45 46 47 48 49 50

000
FPUS83 KFGF 261810
OPUFGF
PRAIRIE TO PINES WEATHER ROUNDUP
NATIONAL WEATHER SERVICE EASTERN NORTH DAKOTA/GRAND FORKS ND
1200 PM CST SUN FEB 26 2017

 **SATELLITE DATA USED TO AUGMENT SKY COVER AT AUTOMATED STATIONS**
 *****  WEATHER ACROSS EASTERN NORTH DAKOTA  *****

CITY           SKY/WX    TMP DP  RH WIND       PRES   REMARKS
GRAND FORKS    FAIR      16   1  51 W8        29.86S WCI   5
6HR MIN TEMP:   1; 6HR MAX TEMP:  16;

GRAND FORKS AF FAIR      16   4  59 W7        29.86R WCI   6
GRAND CITY NWS NOT AVBL
BUXTON         NOT AVBL
DEVILS LAKE    FAIR       6   4  91 W9        29.83R WCI  -8
6HR MIN TEMP:  -8; 6HR MAX TEMP:   7; 6HR PCP: TRACE;

FARGO          FAIR      18   9  68 MISG      29.88R
6HR MIN TEMP:   9; 6HR MAX TEMP:  18; 6HR PCP: TRACE;

WAHPETON ARPT  FAIR      18   7  62 NW6       29.89R WCI   9
$$

 *****  WEATHER ACROSS CENTRAL AND WESTERN NORTH DAKOTA  *****

CITY           SKY/WX    TMP DP  RH WIND       PRES   REMARKS
JAMESTOWN      PTSUNNY   19  10  68 CALM      29.81R
6HR MIN TEMP:  11; 6HR MAX TEMP:  19;

BISMARCK       CLOUDY    18  12  77 SE5       29.80S WCI  11
6HR MIN TEMP:  13; 6HR MAX TEMP:  20;

MINOT          FAIR      19   9  65 W6        29.77S WCI  11
6HR MIN TEMP:  -1; 6HR MAX TEMP:  19; 6HR PCP: TRACE;

MINOT AFB      FAIR      17  10  73 W3        29.77S
6HR MIN TEMP:  -5; 6HR MAX TEMP:  17;

GARRISON         N/A     17  11  77 CALM      29.76S
6HR MIN TEMP:  -1; 6HR MAX TEMP:  17; 6HR PCP:  0.01;

WILLISTON      PTSUNNY   21  14  74 CALM      29.76R
6HR MIN TEMP:  10; 6HR MAX TEMP:  21; 6HR PCP:  0.01;

DICKINSON      PTSUNNY   27  21  78 W17       29.67R WCI  14
6HR MIN TEMP:  14; 6HR MAX TEMP:  27; 6HR PCP: TRACE;

HETTINGER      PTSUNNY   32  23  69 W18       29.72R WCI  20
6HR MIN TEMP:   6; 6HR MAX TEMP:  32;

$$

 *****  OTHER OBSERVATIONS NORTHEAST NORTH DAKOTA  *****

CITY           SKY/WX    TMP DP  RH WIND       PRES   REMARKS
WALHALLA       NOT AVBL
LANGDON        NOT AVBL
CAVALIER         N/A     18   5  57 W10       29.83S WCI   6
GRAFTON        FAIR      14   5  67 W7        29.87R WCI   4
CANDO          NOT AVBL
FORT TOTTEN      N/A     14   8  77 W5        29.95S WCI   6
ROLLA          FAIR      12   7  79 W7        29.76R WCI   2
RUGBY            N/A      5   1  85 S3        29.81R
 ***** THE ABOVE OBSERVATIONS ARE NON NWS ARE NOT QUALITY
        CONTROLLED AND MAY MIS-REPORT RAIN FOR SNOW...
$$

 *****  OTHER OBSERVATIONS SOUTHEAST NORTH DAKOTA *****

CITY           SKY/WX    TMP DP  RH WIND       PRES   REMARKS
COOPERSTOWN    FAIR      10   9  92 W6        29.83R WCI   1
VALLEY CITY    FAIR      18  10  73 NW5       29.84S WCI  11
OAKES          NOT AVBL
GWINNER        FAIR      21  14  73 CALM      29.86R
SHEYENNE NWR     N/A     21   7  55 N3        29.95S
BUFFALO        NOT AVBL
WYNDMERE       NOT AVBL
 ***** THE ABOVE OBSERVATIONS ARE NON NWS ARE NOT QUALITY
       CONTROLLED AND MAY MIS-REPORT RAIN FOR SNOW...
$$

  *****  WEATHER ACROSS NORTHERN MINNESOTA  *****

CITY           SKY/WX    TMP DP  RH WIND       PRES   REMARKS
FLAG ISLAND    FAIR      14   1  57 W14G22    29.76S WCI  -1
WARROAD        FAIR      14   3  62 W14       29.79S HAZE    WCI  -1
ROSEAU         FAIR      14   5  67 W12       29.81R WCI   0
HALLOCK        FAIR      12   5  73 W8        29.84R WCI   1
THF RVR FALLS    N/A    N/A N/A N/A MISG        N/A
HALSTAD          N/A     14   3  61 NW5         N/A  WCI   7
FOSSTON        FAIR      18   5  57 W3        29.83R
BAUDETTE       FAIR      14   1  56 NW9       29.78R WCI   2
6HR MIN TEMP:   3; 6HR MAX TEMP:  14;

WASKISH        FAIR      14   3  62 SW8       29.80R WCI   3
CROOKSTON      FAIR      12   7  79 W5        29.87R WCI   4
$$
  *****  WEATHER ACROSS CENTRAL AND WEST MINNESOTA  *****

CITY           SKY/WX    TMP DP  RH WIND       PRES   REMARKS
BEMIDJI        FAIR      17   6  61 NW6       29.79R WCI   8
PARK RAPIDS    FAIR      20   5  52 VRB7      29.78R WCI  11
6HR MIN TEMP:  14; 6HR MAX TEMP:  21; 6HR PCP: TRACE;

WADENA         FAIR      19   9  63 NW10      29.80R WCI   8
DETROIT LAKES  FAIR      18  10  73 NW9       29.83R WCI   6
MOORHEAD       FAIR      16   7  67 N5        29.88R WCI   9
FERGUS FALLS   FAIR      16  12  86 NW10      29.91R WCI   3
ELBOW LAKE     FAIR      15   9  79 W10       29.86R WCI   2
MORRIS MN      FAIR      23  12  63 NW14G21   29.85R WCI  11
STAPLES        FAIR      19   9  63 W9        29.80R WCI   9
WHEATON        FAIR      18  10  73 N9        29.90R WCI   6
$$
  *****  WEATHER ELSEWHERE ACROSS MINNESOTA  *****

CITY           SKY/WX    TMP DP  RH WIND       PRES   REMARKS
DULUTH         FLURRIES  20  12  71 NW15      29.70R WCI   6
6HR MIN TEMP:  19; 6HR MAX TEMP:  25; 6HR PCP:  0.03;

INTRNTL FALLS  FAIR      14  -1  51 NW12G20   29.76R WCI   0
6HR MIN TEMP:   7; 6HR MAX TEMP:  14; 6HR PCP: TRACE;

ELY            FAIR      16   3  57 W15       29.69R WCI   1
CLOQUET        FLURRIES  21  12  68 NW14      29.72R WCI   8
BRAINERD       FAIR      20   8  60 N14       29.80R WCI   7
6HR MIN TEMP:  18; 6HR MAX TEMP:  24; 6HR PCP:  0.01;

HIBBING        FAIR      15   4  61 NW14      29.74R WCI   0
6HR MIN TEMP:  13; 6HR MAX TEMP:  17; 6HR PCP:  0.01;

ALEXANDRIA     FAIR      23   9  55 NW10      29.82R WCI  12
6HR MIN TEMP:  21; 6HR MAX TEMP:  27;

SAINT CLOUD    FAIR      31  17  56 NW18      29.78R WCI  19
6HR MIN TEMP:  24; 6HR MAX TEMP:  34;

MINNEAPOLIS    PTSUNNY   37  21  52 W17G25    29.79R
6HR MIN TEMP:  23; 6HR MAX TEMP:  38;

$$

  *****  WEATHER ACROSS SOUTH DAKOTA  *****

CITY           SKY/WX    TMP DP  RH WIND       PRES   REMARKS
SIOUX FALLS    FAIR      32  25  75 SW6       29.87R
6HR MIN TEMP:  15; 6HR MAX TEMP:  32;

BROOKINGS      FAIR      34  19  54 NW8       29.82R
WATERTOWN      FAIR      28  16  60 N6        29.81R WCI  22
6HR MIN TEMP:  23; 6HR MAX TEMP:  28;

HURON          FAIR      31  21  66 VRB3      29.86R
6HR MIN TEMP:  19; 6HR MAX TEMP:  32;

SISSETON         N/A     21  14  74 N5        29.85S WCI  15
ABERDEEN       FAIR      23  15  71 E3        29.84S
6HR MIN TEMP:  17; 6HR MAX TEMP:  24;

MITCHELL       FAIR      36  24  62 SW8       29.87S
PIERRE         FAIR      38  19  46 W8        29.80F
6HR MIN TEMP:  17; 6HR MAX TEMP:  38;

MOBRIDGE       CLOUDY    28  21  75 S9        29.76F WCI  19
RAPID CITY     FAIR      36  15  42 SW9       29.77S
6HR MIN TEMP:  13; 6HR MAX TEMP:  37;

$$

  *****  SOME WEATHER IN NEARBY STATES *****

CITY           SKY/WX    TMP DP  RH WIND       PRES   REMARKS
GLASGOW MT     FAIR      23  17  78 NW13      29.77R WCI  11
6HR MIN TEMP:  16; 6HR MAX TEMP:  23; 6HR PCP:  0.01;

GREAT FALLS MT LGT SNOW  23  19  85 NE12      29.74S VSB 3/4 WCI  12
6HR MIN TEMP:  22; 6HR MAX TEMP:  24; 6HR PCP:  0.04;

CHEYENNE WY    FAIR      23   5  46 SW12      29.78S WCI  12
6HR MIN TEMP:  14; 6HR MAX TEMP:  24;

SCOTTSBLUFF NE FAIR      25  10  53 NW8       29.87S WCI  16
6HR MIN TEMP:   4; 6HR MAX TEMP:  25;

OMAHA NE       FAIR      40  20  44 W12       29.96S
6HR MIN TEMP:  32; 6HR MAX TEMP:  40;

DES MOINES IA  FAIR      46  26  45 W26       29.92S
6HR MIN TEMP:  29; 6HR MAX TEMP:  47;

DAVENPORT IA   FAIR      44  25  47 W22G28    29.95F
6HR MIN TEMP:  29; 6HR MAX TEMP:  44;

CHICAGO IL     PTSUNNY   43  19  38 SW21G35   29.94F
6HR MIN TEMP:  25; 6HR MAX TEMP:  43;

EAU CLAIRE WI  CLOUDY    30  21  69 SW12      29.78R WCI  20
6HR MIN TEMP:  18; 6HR MAX TEMP:  30;

LA CROSSE WI   FAIR      38  24  57 SW14      29.83S
6HR MIN TEMP:  28; 6HR MAX TEMP:  39;

$$

  *****  SOME NATIONAL WEATHER *****

CITY           SKY/WX    TMP DP  RH WIND       PRES   REMARKS
LA GUARDIA NY  FAIR      42  17  36 NW22      30.01S
6HR MIN TEMP:  39; 6HR MAX TEMP:  43;

RALEIGH NC     FAIR      51  14  22 W8        30.19F



USA.gov is the U.S. government's official web portal to all federal, state and local government web resources and services.